Time,TemperatureF,DewpointF,PressureIn,WindDirection,WindDirectionDegrees,WindSpeedMPH,WindSpeedGustMPH,Humidity,HourlyPrecipIn,Conditions,Clouds,dailyrainin,SoftwareType,DateUTC
2013-04-07 00:00:00,33.4,28.2,29.47,NNW,344,0.0,0.0,81,0.00,CLR,,0.00,WeatherDisplay:10.37,2013-04-07 08:00:00,
2013-04-07 00:05:00,33.4,28.5,29.47,NNW,344,0.0,0.0,82,0.00,CLR,,0.00,WeatherDisplay:10.37,2013-04-07 08:05:00,
2013-04-07 00:10:00,33.3,28.4,29.47,NNW,344,0.0,0.0,82,0.00,CLR,,0.00,WeatherDisplay:10.37,2013-04-07 08:10:00,
2013-04-07 00:15:00,33.3,28.4,29.47,NNW,344,0.0,0.0,82,0.00,CLR,,0.00,WeatherDisplay:10.37,2013-04-07 08:15:00,
2013-04-07 00:20:00,33.3,28.4,29.47,NNW,344,0.0,0.0,82,0.00,CLR,,0.00,WeatherDisplay:10.37,2013-04-07 08:20:00,
2013-04-07 00:25:00,33.2,28.0,29.47,NNW,344,0.0,0.0,81,0.00,CLR,,0.00,WeatherDisplay:10.37,2013-04-07 08:25:00,
2013-04-07 00:30:00,33.1,27.6,29.47,NNW,344,0.0,0.0,80,0.00,CLR,,0.00,WeatherDisplay:10.37,2013-04-07 08:30:00,
2013-04-07 00:35:00,33.0,27.5,29.48,NNW,344,0.0,0.0,80,0.00,CLR,,0.00,WeatherDisplay:10.37,2013-04-07 08:35:00,
2013-04-07 00:40:00,32.9,27.4,29.48,NNW,344,0.0,0.0,80,0.00,CLR,,0.00,WeatherDisplay:10.37,2013-04-07 08:40:00,
2013-04-07 00:45:00,32.8,27.0,29.48,NNW,344,0.0,0.0,79,0.00,CLR,,0.00,WeatherDisplay:10.37,2013-04-07 08:45:00,
2013-04-07 00:50:00,32.6,26.8,29.48,NNW,344,0.0,0.0,79,0.00,CLR,,0.00,WeatherDisplay:10.37,2013-04-07 08:50:00,
2013-04-07 00:55:00,32.5,26.4,29.48,NNW,344,0.0,0.0,78,0.00,CLR,,0.00,WeatherDisplay:10.37,2013-04-07 08:55:00,
2013-04-07 01:00:00,32.5,26.4,29.48,NNW,344,0.0,0.0,78,0.00,CLR,,0.00,WeatherDisplay:10.37,2013-04-07 09:00:00,
2013-04-07 01:05:00,32.4,26.0,29.49,NNW,344,0.0,0.0,77,0.00,CLR,,0.00,WeatherDisplay:10.37,2013-04-07 09:05:00,
2013-04-07 01:11:00,32.3,25.9,29.49,NNW,344,0.0,0.0,77,0.00,CLR,,0.00,WeatherDisplay:10.37,2013-04-07 09:11:00,
2013-04-07 01:16:00,32.3,25.3,29.49,NNW,344,0.0,0.0,75,0.00,CLR,,0.00,WeatherDisplay:10.37,2013-04-07 09:16:00,
2013-04-07 01:21:00,32.4,25.4,29.49,NNW,344,0.0,0.0,75,0.00,CLR,,0.00,WeatherDisplay:10.37,2013-04-07 09:21:00,
2013-04-07 01:26:00,32.4,25.4,29.49,NNW,344,0.0,0.0,75,0.00,CLR,,0.00,WeatherDisplay:10.37,2013-04-07 09:26:00,
2013-04-07 01:31:00,32.3,24.9,29.49,NNW,344,0.0,0.0,74,0.00,CLR,,0.00,WeatherDisplay:10.37,2013-04-07 09:31:00,
2013-04-07 01:36:00,32.3,24.9,29.49,NNW,344,0.0,0.0,74,0.00,CLR,,0.00,WeatherDisplay:10.37,2013-04-07 09:36:00,
2013-04-07 01:41:00,32.2,25.5,29.49,NNW,344,0.0,0.0,76,0.00,CLR,,0.00,WeatherDisplay:10.37,2013-04-07 09:41:00,
2013-04-07 01:46:00,31.8,25.1,29.49,NNW,344,0.0,0.0,76,0.00,CLR,,0.00,WeatherDisplay:10.37,2013-04-07 09:46:00,
2013-04-07 01:51:00,31.2,24.5,29.49,NNW,344,0.0,0.0,76,0.00,CLR,,0.00,WeatherDisplay:10.37,2013-04-07 09:51:00,
2013-04-07 01:56:00,30.8,24.7,29.50,NNW,344,0.0,0.0,78,0.00,CLR,,0.00,WeatherDisplay:10.37,2013-04-07 09:56:00,
2013-04-07 02:01:00,30.3,24.3,29.50,NNW,344,0.0,0.0,78,0.00,CLR,,0.00,WeatherDisplay:10.37,2013-04-07 10:01:00,
2013-04-07 02:06:00,30.0,24.0,29.50,NNW,344,0.0,0.0,78,0.00,CLR,,0.00,WeatherDisplay:10.37,2013-04-07 10:06:00,
2013-04-07 02:11:00,29.7,24.3,29.50,NNW,344,0.0,0.0,80,0.00,CLR,,0.00,WeatherDisplay:10.37,2013-04-07 10:11:00,
2013-04-07 02:16:00,29.4,23.7,29.50,NNW,344,0.0,0.0,79,0.00,CLR,,0.00,WeatherDisplay:10.37,2013-04-07 10:16:00,
2013-04-07 02:21:00,29.4,23.4,29.50,NNW,344,0.0,0.0,78,0.00,CLR,,0.00,WeatherDisplay:10.37,2013-04-07 10:21:00,
2013-04-07 02:26:00,29.5,22.9,29.50,NNW,344,0.0,0.0,76,0.00,CLR,,0.00,WeatherDisplay:10.37,2013-04-07 10:26:00,
2013-04-07 02:31:00,29.8,22.8,29.50,NNW,344,0.0,0.0,75,0.00,CLR,,0.00,WeatherDisplay:10.37,2013-04-07 10:31:00,
2013-04-07 02:36:00,30.2,21.9,29.50,NNW,344,0.0,0.0,71,0.00,CLR,,0.00,WeatherDisplay:10.37,2013-04-07 10:36:00,
2013-04-07 02:41:00,30.4,21.1,29.50,NNW,344,0.0,0.0,68,0.00,CLR,,0.00,WeatherDisplay:10.37,2013-04-07 10:41:00,
2013-04-07 02:46:00,30.8,21.5,29.50,NNW,344,0.0,0.0,68,0.01,RA,,0.01,WeatherDisplay:10.37,2013-04-07 10:46:00,
2013-04-07 02:51:00,30.8,21.1,29.50,NNW,344,0.0,0.0,67,0.01,RA,,0.01,WeatherDisplay:10.37,2013-04-07 10:51:00,
2013-04-07 02:56:00,30.7,20.7,29.50,NNW,344,0.0,0.0,66,0.01,,,0.01,WeatherDisplay:10.37,2013-04-07 10:56:00,
2013-04-07 03:01:00,30.7,20.7,29.50,NNW,344,0.0,0.0,66,0.01,CLR,,0.01,WeatherDisplay:10.37,2013-04-07 11:01:00,
2013-04-07 03:06:00,30.8,20.4,29.50,NNW,344,0.0,0.0,65,0.01,CLR,,0.01,WeatherDisplay:10.37,2013-04-07 11:06:00,
2013-04-07 03:11:00,30.7,20.3,29.50,NNW,344,0.0,0.0,65,0.01,CLR,,0.01,WeatherDisplay:10.37,2013-04-07 11:11:00,
2013-04-07 03:16:00,30.5,19.4,29.50,NNW,344,0.0,0.0,63,0.01,CLR,,0.01,WeatherDisplay:10.37,2013-04-07 11:16:00,
2013-04-07 03:21:00,30.4,19.7,29.51,NNW,344,0.0,0.0,64,0.01,CLR,,0.01,WeatherDisplay:10.37,2013-04-07 11:21:00,
2013-04-07 03:26:00,30.2,19.5,29.51,NNW,344,0.0,0.0,64,0.01,CLR,,0.01,WeatherDisplay:10.37,2013-04-07 11:26:00,
2013-04-07 03:31:00,30.1,19.4,29.51,NNW,344,0.0,0.0,64,0.01,CLR,,0.01,WeatherDisplay:10.37,2013-04-07 11:31:00,
2013-04-07 03:36:00,29.9,19.2,29.51,NNW,344,0.0,0.0,64,0.01,CLR,,0.01,WeatherDisplay:10.37,2013-04-07 11:36:00,
2013-04-07 03:41:00,29.5,19.9,29.51,NNW,344,0.0,0.0,67,0.01,CLR,,0.01,WeatherDisplay:10.37,2013-04-07 11:41:00,
2013-04-07 03:46:00,29.2,18.9,29.51,NNW,344,0.0,0.0,65,0.00,CLR,,0.01,WeatherDisplay:10.37,2013-04-07 11:46:00,
2013-04-07 03:51:00,28.9,19.7,29.51,NNW,344,0.0,0.0,68,0.00,CLR,,0.01,WeatherDisplay:10.37,2013-04-07 11:51:00,
2013-04-07 03:56:00,28.7,20.1,29.51,NNW,344,0.0,0.0,70,0.00,CLR,,0.01,WeatherDisplay:10.37,2013-04-07 11:56:00,
2013-04-07 04:01:00,28.2,20.0,29.51,NNW,344,0.0,0.0,71,0.00,CLR,,0.01,WeatherDisplay:10.37,2013-04-07 12:01:00,
2013-04-07 04:06:00,27.8,19.3,29.51,NNW,344,0.0,0.0,70,0.00,CLR,,0.01,WeatherDisplay:10.37,2013-04-07 12:06:00,
2013-04-07 04:11:00,27.6,19.4,29.51,NNW,344,0.0,0.0,71,0.00,CLR,,0.01,WeatherDisplay:10.37,2013-04-07 12:11:00,
2013-04-07 04:16:00,27.4,19.6,29.51,NNW,344,0.0,0.0,72,0.00,CLR,,0.01,WeatherDisplay:10.37,2013-04-07 12:16:00,
2013-04-07 04:21:00,27.2,19.0,29.51,NNW,344,0.0,0.0,71,0.00,CLR,,0.01,WeatherDisplay:10.37,2013-04-07 12:21:00,
2013-04-07 04:26:00,27.5,19.0,29.51,NNW,344,0.0,0.0,70,0.00,CLR,,0.01,WeatherDisplay:10.37,2013-04-07 12:26:00,
2013-04-07 04:31:00,27.7,19.2,29.51,NNW,344,0.0,0.0,70,0.00,CLR,,0.01,WeatherDisplay:10.37,2013-04-07 12:31:00,
2013-04-07 04:36:00,27.6,19.4,29.51,NNW,344,0.0,0.0,71,0.00,CLR,,0.01,WeatherDisplay:10.37,2013-04-07 12:36:00,
2013-04-07 04:41:00,27.3,19.5,29.52,NNW,344,0.0,0.0,72,0.00,CLR,,0.01,WeatherDisplay:10.37,2013-04-07 12:41:00,
2013-04-07 04:46:00,26.9,19.1,29.51,NNW,344,0.0,0.0,72,0.00,CLR,,0.01,WeatherDisplay:10.37,2013-04-07 12:46:00,
2013-04-07 04:51:00,26.6,19.1,29.51,NNW,344,0.0,0.0,73,0.00,CLR,,0.01,WeatherDisplay:10.37,2013-04-07 12:51:00,
2013-04-07 04:56:00,26.6,18.8,29.51,NNW,344,0.0,0.0,72,0.00,CLR,,0.01,WeatherDisplay:10.37,2013-04-07 12:56:00,
2013-04-07 05:01:00,26.6,19.1,29.52,NNW,344,0.0,0.0,73,0.00,CLR,,0.01,WeatherDisplay:10.37,2013-04-07 13:01:00,
2013-04-07 05:06:00,26.3,19.1,29.52,NNW,344,0.0,0.0,74,0.00,CLR,,0.01,WeatherDisplay:10.37,2013-04-07 13:06:00,
2013-04-07 05:11:00,26.4,18.6,29.52,NNW,344,0.0,0.0,72,0.00,CLR,,0.01,WeatherDisplay:10.37,2013-04-07 13:11:00,
2013-04-07 05:16:00,26.3,18.8,29.52,NNW,344,0.0,0.0,73,0.00,CLR,,0.01,WeatherDisplay:10.37,2013-04-07 13:16:00,
2013-04-07 05:21:00,26.0,18.8,29.52,NNW,344,0.0,0.0,74,0.00,CLR,,0.01,WeatherDisplay:10.37,2013-04-07 13:21:00,
2013-04-07 05:26:00,25.7,18.9,29.52,NNW,344,0.0,0.0,75,0.00,CLR,,0.01,WeatherDisplay:10.37,2013-04-07 13:26:00,
2013-04-07 05:32:00,25.3,19.1,29.52,NNW,344,0.0,0.0,77,0.00,CLR,,0.01,WeatherDisplay:10.37,2013-04-07 13:32:00,
2013-04-07 05:37:00,24.9,18.7,29.52,NNW,344,0.0,0.0,77,0.00,CLR,,0.01,WeatherDisplay:10.37,2013-04-07 13:37:00,
2013-04-07 05:42:00,24.6,18.7,29.53,NNW,344,0.0,0.0,78,0.00,CLR,,0.01,WeatherDisplay:10.37,2013-04-07 13:42:00,
2013-04-07 05:47:00,24.3,18.4,29.53,NNW,344,0.0,0.0,78,0.00,CLR,,0.01,WeatherDisplay:10.37,2013-04-07 13:47:00,
2013-04-07 05:52:00,24.2,18.3,29.52,NNW,344,0.0,0.0,78,0.00,CLR,,0.01,WeatherDisplay:10.37,2013-04-07 13:52:00,
2013-04-07 05:57:00,24.2,18.3,29.53,NNW,344,0.0,0.0,78,0.00,CLR,,0.01,WeatherDisplay:10.37,2013-04-07 13:57:00,
2013-04-07 06:02:00,24.2,18.3,29.53,NNW,344,0.0,0.0,78,0.00,CLR,,0.01,WeatherDisplay:10.37,2013-04-07 14:02:00,
2013-04-07 06:07:00,24.1,18.2,29.53,NNW,344,0.0,0.0,78,0.00,CLR,,0.01,WeatherDisplay:10.37,2013-04-07 14:07:00,
2013-04-07 06:12:00,24.2,18.3,29.53,NNW,344,0.0,0.0,78,0.00,CLR,,0.01,WeatherDisplay:10.37,2013-04-07 14:12:00,
2013-04-07 06:17:00,24.3,18.1,29.53,NNW,344,0.0,0.0,77,0.00,CLR,,0.01,WeatherDisplay:10.37,2013-04-07 14:17:00,
2013-04-07 06:22:00,24.0,17.8,29.53,NNW,344,0.0,0.0,77,0.00,CLR,,0.01,WeatherDisplay:10.37,2013-04-07 14:22:00,
2013-04-07 06:27:00,23.9,17.7,29.53,NNW,344,0.0,0.0,77,0.00,CLR,,0.01,WeatherDisplay:10.37,2013-04-07 14:27:00,
2013-04-07 06:32:00,24.0,17.5,29.53,NNW,344,0.0,0.0,76,0.00,CLR,,0.01,WeatherDisplay:10.37,2013-04-07 14:32:00,
2013-04-07 06:37:00,24.0,18.1,29.53,NNW,344,0.0,0.0,78,0.00,CLR,,0.01,WeatherDisplay:10.37,2013-04-07 14:37:00,
2013-04-07 06:42:00,23.8,17.9,29.53,NNW,344,0.0,0.0,78,0.00,CLR,,0.01,WeatherDisplay:10.37,2013-04-07 14:42:00,
2013-04-07 06:47:00,23.5,17.9,29.53,NNW,344,0.0,0.0,79,0.00,CLR,,0.01,WeatherDisplay:10.37,2013-04-07 14:47:00,
2013-04-07 06:52:00,23.4,17.8,29.54,NNW,344,0.0,0.0,79,0.00,CLR,,0.01,WeatherDisplay:10.37,2013-04-07 14:52:00,
2013-04-07 06:57:00,23.3,17.7,29.54,NNW,344,0.0,0.0,79,0.00,CLR,,0.01,WeatherDisplay:10.37,2013-04-07 14:57:00,
2013-04-07 07:02:00,23.0,18.0,29.54,NNW,344,0.0,0.0,81,0.00,CLR,,0.01,WeatherDisplay:10.37,2013-04-07 15:02:00,
2013-04-07 07:07:00,22.9,17.9,29.54,NNW,344,0.0,0.0,81,0.00,CLR,,0.01,WeatherDisplay:10.37,2013-04-07 15:07:00,
2013-04-07 07:12:00,22.8,17.6,29.54,NNW,344,0.0,0.0,80,0.00,CLR,,0.01,WeatherDisplay:10.37,2013-04-07 15:12:00,
2013-04-07 07:17:00,22.7,17.5,29.55,NNW,344,0.0,0.0,80,0.00,CLR,,0.01,WeatherDisplay:10.37,2013-04-07 15:17:00,
2013-04-07 07:22:00,22.5,17.3,29.54,NNW,344,0.0,0.0,80,0.00,CLR,,0.01,WeatherDisplay:10.37,2013-04-07 15:22:00,
2013-04-07 07:27:00,22.4,16.9,29.55,NNW,344,0.0,0.0,79,0.00,CLR,,0.01,WeatherDisplay:10.37,2013-04-07 15:27:00,
2013-04-07 07:32:00,22.4,16.9,29.55,NNW,344,0.0,0.0,79,0.00,CLR,,0.01,WeatherDisplay:10.37,2013-04-07 15:32:00,
2013-04-07 07:37:00,22.4,16.9,29.55,NNW,344,0.0,0.0,79,0.00,CLR,,0.01,WeatherDisplay:10.37,2013-04-07 15:37:00,
2013-04-07 07:42:00,22.4,16.9,29.55,NNW,344,0.0,0.0,79,0.00,CLR,,0.01,WeatherDisplay:10.37,2013-04-07 15:42:00,
2013-04-07 07:47:00,22.4,16.9,29.55,NNW,344,0.0,0.0,79,0.00,CLR,,0.01,WeatherDisplay:10.37,2013-04-07 15:47:00,
2013-04-07 07:52:00,22.4,16.9,29.55,NNW,344,0.0,0.0,79,0.00,CLR,,0.01,WeatherDisplay:10.37,2013-04-07 15:52:00,
2013-04-07 07:57:00,22.6,17.1,29.55,NNW,344,0.0,0.0,79,0.00,CLR,,0.01,WeatherDisplay:10.37,2013-04-07 15:57:00,
2013-04-07 08:02:00,22.8,16.7,29.55,NNW,344,0.0,0.0,77,0.00,CLR,,0.01,WeatherDisplay:10.37,2013-04-07 16:02:00,
2013-04-07 08:07:00,23.1,17.3,29.55,NNW,344,0.0,0.0,78,0.00,CLR,,0.01,WeatherDisplay:10.37,2013-04-07 16:07:00,
2013-04-07 08:12:00,23.2,17.4,29.55,NNW,344,0.0,0.0,78,0.00,CLR,,0.01,WeatherDisplay:10.37,2013-04-07 16:12:00,
2013-04-07 08:17:00,23.3,16.5,29.56,NNW,344,0.0,0.0,75,0.00,CLR,,0.01,WeatherDisplay:10.37,2013-04-07 16:17:00,
2013-04-07 08:22:00,23.6,17.1,29.56,NNW,344,0.0,0.0,76,0.00,CLR,,0.01,WeatherDisplay:10.37,2013-04-07 16:22:00,
2013-04-07 08:27:00,23.5,17.0,29.56,NNW,344,0.0,0.0,76,0.00,CLR,,0.01,WeatherDisplay:10.37,2013-04-07 16:27:00,
2013-04-07 08:32:00,23.9,16.8,29.56,NNW,344,0.0,0.0,74,0.00,CLR,,0.01,WeatherDisplay:10.37,2013-04-07 16:32:00,
2013-04-07 08:37:00,24.0,17.2,29.56,NNW,344,0.0,0.0,75,0.00,CLR,,0.01,WeatherDisplay:10.37,2013-04-07 16:37:00,
2013-04-07 08:42:00,24.2,17.1,29.56,NNW,344,0.0,0.0,74,0.00,CLR,,0.01,WeatherDisplay:10.37,2013-04-07 16:42:00,
2013-04-07 08:47:00,24.6,17.2,29.56,NNW,344,0.0,0.0,73,0.00,CLR,,0.01,WeatherDisplay:10.37,2013-04-07 16:47:00,
2013-04-07 08:52:00,24.9,17.5,29.56,NNW,344,0.0,0.0,73,0.00,CLR,,0.01,WeatherDisplay:10.37,2013-04-07 16:52:00,
2013-04-07 08:57:00,25.3,17.2,29.56,NNW,344,0.0,0.0,71,0.00,CLR,,0.01,WeatherDisplay:10.37,2013-04-07 16:57:00,
2013-04-07 09:02:00,26.3,17.5,29.56,NNW,344,0.0,0.0,69,0.00,CLR,,0.01,WeatherDisplay:10.37,2013-04-07 17:02:00,
2013-04-07 09:07:00,27.3,17.4,29.56,NNW,344,0.0,0.0,66,0.00,CLR,,0.01,WeatherDisplay:10.37,2013-04-07 17:07:00,
2013-04-07 09:12:00,28.4,17.0,29.56,NNW,344,0.0,0.0,62,0.00,CLR,,0.01,WeatherDisplay:10.37,2013-04-07 17:12:00,
2013-04-07 09:17:00,29.2,17.0,29.56,NNW,344,0.0,0.0,60,0.00,CLR,,0.01,WeatherDisplay:10.37,2013-04-07 17:17:00,
2013-04-07 09:22:00,29.7,17.1,29.56,NNW,344,0.0,0.0,59,0.00,CLR,,0.01,WeatherDisplay:10.37,2013-04-07 17:22:00,
2013-04-07 09:27:00,30.1,16.7,29.56,NNW,344,0.0,0.0,57,0.00,CLR,,0.01,WeatherDisplay:10.37,2013-04-07 17:27:00,
2013-04-07 09:32:00,30.3,16.9,29.57,NNW,344,0.0,0.0,57,0.00,CLR,,0.01,WeatherDisplay:10.37,2013-04-07 17:32:00,
2013-04-07 09:37:00,30.5,17.1,29.57,NNW,344,0.0,0.0,57,0.00,CLR,,0.01,WeatherDisplay:10.37,2013-04-07 17:37:00,
2013-04-07 09:42:00,30.6,16.3,29.57,NNW,344,0.0,0.0,55,0.00,CLR,,0.01,WeatherDisplay:10.37,2013-04-07 17:42:00,
2013-04-07 09:47:00,30.6,16.3,29.57,NNW,344,0.0,0.0,55,0.00,CLR,,0.01,WeatherDisplay:10.37,2013-04-07 17:47:00,
2013-04-07 09:52:00,30.6,16.3,29.57,NNW,343,0.0,0.0,55,0.00,CLR,,0.01,WeatherDisplay:10.37,2013-04-07 17:52:00,
2013-04-07 09:57:00,30.6,16.3,29.57,NNW,343,0.0,0.0,55,0.00,CLR,,0.01,WeatherDisplay:10.37,2013-04-07 17:57:00,
2013-04-07 10:02:00,30.7,16.8,29.57,NNW,343,0.0,0.0,56,0.00,CLR,,0.01,WeatherDisplay:10.37,2013-04-07 18:02:00,
2013-04-07 10:07:00,30.7,16.4,29.57,NNW,343,0.0,0.0,55,0.00,CLR,,0.01,WeatherDisplay:10.37,2013-04-07 18:07:00,
2013-04-07 10:12:00,30.8,16.5,29.57,NNW,343,0.0,0.0,55,0.00,CLR,,0.01,WeatherDisplay:10.37,2013-04-07 18:12:00,
2013-04-07 10:17:00,30.8,16.5,29.57,NNW,343,0.0,0.0,55,0.00,CLR,,0.01,WeatherDisplay:10.37,2013-04-07 18:17:00,
2013-04-07 10:22:00,31.0,17.1,29.57,NNW,343,0.0,0.0,56,0.00,CLR,,0.01,WeatherDisplay:10.37,2013-04-07 18:22:00,
2013-04-07 10:27:00,31.0,17.1,29.57,NNW,343,0.0,0.0,56,0.00,CLR,,0.01,WeatherDisplay:10.37,2013-04-07 18:27:00,
2013-04-07 10:32:00,31.1,16.8,29.57,NNW,343,0.0,0.0,55,0.00,CLR,,0.01,WeatherDisplay:10.37,2013-04-07 18:32:00,
2013-04-07 10:37:00,31.1,16.8,29.58,NNW,343,0.0,0.0,55,0.00,CLR,,0.01,WeatherDisplay:10.37,2013-04-07 18:37:00,
2013-04-07 10:42:00,31.2,16.9,29.58,NNW,343,0.0,0.0,55,0.00,CLR,,0.01,WeatherDisplay:10.37,2013-04-07 18:42:00,
2013-04-07 10:47:00,31.2,16.5,29.58,NNW,343,0.0,0.0,54,0.00,CLR,,0.01,WeatherDisplay:10.37,2013-04-07 18:47:00,
2013-04-07 10:52:00,31.2,16.0,29.58,NNW,343,0.0,0.0,53,0.00,CLR,,0.01,WeatherDisplay:10.37,2013-04-07 18:52:00,
2013-04-07 10:57:00,31.3,16.1,29.58,NNW,343,0.0,0.0,53,0.00,CLR,,0.01,WeatherDisplay:10.37,2013-04-07 18:57:00,
2013-04-07 11:02:00,31.4,16.7,29.59,NNW,343,0.0,0.0,54,0.00,CLR,,0.01,WeatherDisplay:10.37,2013-04-07 19:02:00,
2013-04-07 11:07:00,31.3,16.1,29.59,NNW,343,0.0,0.0,53,0.00,CLR,,0.01,WeatherDisplay:10.37,2013-04-07 19:07:00,
2013-04-07 11:12:00,31.3,16.1,29.59,NNW,344,0.0,0.0,53,0.00,CLR,,0.01,WeatherDisplay:10.37,2013-04-07 19:12:00,
2013-04-07 11:17:00,31.4,16.7,29.59,NNW,344,0.0,0.0,54,0.00,CLR,,0.01,WeatherDisplay:10.37,2013-04-07 19:17:00,
2013-04-07 11:22:00,31.3,16.1,29.59,NNW,344,0.0,0.0,53,0.00,CLR,,0.01,WeatherDisplay:10.37,2013-04-07 19:22:00,
2013-04-07 11:27:00,31.3,15.7,29.59,NNW,344,0.0,0.0,52,0.00,CLR,,0.01,WeatherDisplay:10.37,2013-04-07 19:27:00,
2013-04-07 11:32:00,31.2,15.6,29.59,NNW,344,0.0,0.0,52,0.00,CLR,,0.01,WeatherDisplay:10.37,2013-04-07 19:32:00,
2013-04-07 11:37:00,31.4,16.2,29.60,NNW,344,0.0,0.0,53,0.00,CLR,,0.01,WeatherDisplay:10.37,2013-04-07 19:37:00,
2013-04-07 11:42:00,31.5,16.3,29.60,NNW,344,0.0,0.0,53,0.00,CLR,,0.01,WeatherDisplay:10.37,2013-04-07 19:42:00,
2013-04-07 11:47:00,31.6,16.0,29.60,NNW,344,0.0,0.0,52,0.00,CLR,,0.01,WeatherDisplay:10.37,2013-04-07 19:47:00,
2013-04-07 11:52:00,31.6,16.4,29.60,NNW,344,0.0,0.0,53,0.00,CLR,,0.01,WeatherDisplay:10.37,2013-04-07 19:52:00,
2013-04-07 11:57:00,31.6,16.4,29.60,NNW,343,0.0,0.0,53,0.00,CLR,,0.01,WeatherDisplay:10.37,2013-04-07 19:57:00,
2013-04-07 12:02:00,31.5,15.4,29.60,NNW,343,0.0,0.0,51,0.00,CLR,,0.01,WeatherDisplay:10.37,2013-04-07 20:02:00,
2013-04-07 12:07:00,31.6,16.0,29.60,NNW,343,0.0,0.0,52,0.00,CLR,,0.01,WeatherDisplay:10.37,2013-04-07 20:07:00,
2013-04-07 12:12:00,31.7,15.6,29.60,NNW,344,0.0,0.0,51,0.00,CLR,,0.01,WeatherDisplay:10.37,2013-04-07 20:12:00,
2013-04-07 12:17:00,31.9,16.2,29.60,NNW,343,0.0,0.0,52,0.00,CLR,,0.01,WeatherDisplay:10.37,2013-04-07 20:17:00,
2013-04-07 12:22:00,31.8,15.3,29.60,NNW,344,0.0,0.0,50,0.00,CLR,,0.01,WeatherDisplay:10.37,2013-04-07 20:22:00,
2013-04-07 12:27:00,31.7,15.6,29.60,NNW,343,0.0,0.0,51,0.00,CLR,,0.01,WeatherDisplay:10.37,2013-04-07 20:27:00,
2013-04-07 12:32:00,31.7,15.2,29.60,NNW,343,0.0,0.0,50,0.00,CLR,,0.01,WeatherDisplay:10.37,2013-04-07 20:32:00,
2013-04-07 12:37:00,31.5,14.5,29.61,NNW,340,0.0,0.0,49,0.00,CLR,,0.01,WeatherDisplay:10.37,2013-04-07 20:37:00,
2013-04-07 12:42:00,31.6,15.1,29.61,NNW,341,0.0,0.0,50,0.00,CLR,,0.01,WeatherDisplay:10.37,2013-04-07 20:42:00,
2013-04-07 12:47:00,31.9,14.9,29.61,NNW,341,0.0,0.0,49,0.00,CLR,,0.01,WeatherDisplay:10.37,2013-04-07 20:47:00,
2013-04-07 12:52:00,31.9,14.9,29.61,NNW,341,0.0,0.0,49,0.00,CLR,,0.01,WeatherDisplay:10.37,2013-04-07 20:52:00,
2013-04-07 12:57:00,31.9,14.4,29.61,NNW,343,0.0,0.0,48,0.00,CLR,,0.01,WeatherDisplay:10.37,2013-04-07 20:57:00,
2013-04-07 13:02:00,31.8,14.3,29.61,NNW,341,0.0,0.0,48,0.00,CLR,,0.01,WeatherDisplay:10.37,2013-04-07 21:02:00,
2013-04-07 13:07:00,31.8,14.3,29.62,NNW,341,0.0,0.0,48,0.00,CLR,,0.01,WeatherDisplay:10.37,2013-04-07 21:07:00,
2013-04-07 13:12:00,31.9,14.4,29.62,NNW,341,0.0,0.0,48,0.00,CLR,,0.01,WeatherDisplay:10.37,2013-04-07 21:12:00,
2013-04-07 13:17:00,32.0,14.5,29.62,NNW,343,0.0,0.0,48,0.00,CLR,,0.01,WeatherDisplay:10.37,2013-04-07 21:17:00,
2013-04-07 13:22:00,32.3,14.3,29.63,NNW,343,0.0,0.0,47,0.00,CLR,,0.01,WeatherDisplay:10.37,2013-04-07 21:22:00,
2013-04-07 13:27:00,32.1,13.6,29.63,NNW,342,0.0,0.0,46,0.00,CLR,,0.01,WeatherDisplay:10.37,2013-04-07 21:27:00,
2013-04-07 13:32:00,31.9,13.4,29.63,NNW,341,0.0,0.0,46,0.00,CLR,,0.01,WeatherDisplay:10.37,2013-04-07 21:32:00,
2013-04-07 13:37:00,32.0,13.0,29.63,NNW,342,0.0,0.0,45,0.00,CLR,,0.01,WeatherDisplay:10.37,2013-04-07 21:37:00,
2013-04-07 13:42:00,32.3,13.8,29.64,NNW,342,0.0,0.0,46,0.00,CLR,,0.01,WeatherDisplay:10.37,2013-04-07 21:42:00,
2013-04-07 13:47:00,32.4,13.4,29.64,NNW,341,0.0,0.0,45,0.00,CLR,,0.01,WeatherDisplay:10.37,2013-04-07 21:47:00,
2013-04-07 13:52:00,32.5,14.5,29.64,NNW,340,0.0,0.0,47,0.00,CLR,,0.01,WeatherDisplay:10.37,2013-04-07 21:52:00,
2013-04-07 13:57:00,32.6,14.1,29.64,NNW,341,0.0,0.0,46,0.00,CLR,,0.01,WeatherDisplay:10.37,2013-04-07 21:57:00,
2013-04-07 14:02:00,32.6,13.1,29.64,NNW,341,0.0,0.0,44,0.00,CLR,,0.01,WeatherDisplay:10.37,2013-04-07 22:02:00,
2013-04-07 14:07:00,32.5,13.5,29.64,NNW,340,0.0,0.0,45,0.00,CLR,,0.01,WeatherDisplay:10.37,2013-04-07 22:07:00,
2013-04-07 14:12:00,32.3,13.3,29.64,NNW,339,0.0,0.0,45,0.00,CLR,,0.01,WeatherDisplay:10.37,2013-04-07 22:12:00,
2013-04-07 14:17:00,32.3,12.8,29.64,NNW,341,0.0,0.0,44,0.00,CLR,,0.01,WeatherDisplay:10.37,2013-04-07 22:17:00,
2013-04-07 14:22:00,32.2,12.2,29.64,NNW,341,0.0,0.0,43,0.00,CLR,,0.01,WeatherDisplay:10.37,2013-04-07 22:22:00,
2013-04-07 14:27:00,31.9,12.9,29.65,NNW,341,0.0,0.0,45,0.00,CLR,,0.01,WeatherDisplay:10.37,2013-04-07 22:27:00,
2013-04-07 14:32:00,32.1,13.6,29.65,NNW,340,0.0,0.0,46,0.00,CLR,,0.01,WeatherDisplay:10.37,2013-04-07 22:32:00,
2013-04-07 14:37:00,31.9,14.4,29.65,NNW,340,0.0,0.0,48,0.00,CLR,,0.01,WeatherDisplay:10.37,2013-04-07 22:37:00,
2013-04-07 14:42:00,31.7,13.7,29.65,NNW,339,0.0,0.0,47,0.00,CLR,,0.01,WeatherDisplay:10.37,2013-04-07 22:42:00,
2013-04-07 14:47:00,31.8,12.8,29.65,NNW,341,0.0,0.0,45,0.00,CLR,,0.01,WeatherDisplay:10.37,2013-04-07 22:47:00,
2013-04-07 14:52:00,31.9,13.4,29.65,NNW,341,0.0,0.0,46,0.00,CLR,,0.01,WeatherDisplay:10.37,2013-04-07 22:52:00,
2013-04-07 14:57:00,32.0,14.0,29.66,NNW,340,0.0,0.0,47,0.00,CLR,,0.01,WeatherDisplay:10.37,2013-04-07 22:57:00,
2013-04-07 15:02:00,31.9,14.4,29.66,NNW,341,0.0,0.0,48,0.00,CLR,,0.01,WeatherDisplay:10.37,2013-04-07 23:02:00,
2013-04-07 15:07:00,32.3,13.8,29.66,NNW,341,0.0,0.0,46,0.00,CLR,,0.01,WeatherDisplay:10.37,2013-04-07 23:07:00,
2013-04-07 15:12:00,32.1,13.6,29.67,NNW,341,0.0,0.0,46,0.00,CLR,,0.01,WeatherDisplay:10.37,2013-04-07 23:12:00,
2013-04-07 15:17:00,32.2,13.7,29.67,NNW,340,0.0,0.0,46,0.00,CLR,,0.01,WeatherDisplay:10.37,2013-04-07 23:17:00,
2013-04-07 15:22:00,32.5,14.5,29.67,NNW,341,0.0,0.0,47,0.00,CLR,,0.01,WeatherDisplay:10.37,2013-04-07 23:22:00,
2013-04-07 15:27:00,32.5,14.0,29.67,NNW,341,0.0,0.0,46,0.00,CLR,,0.01,WeatherDisplay:10.37,2013-04-07 23:27:00,
2013-04-07 15:32:00,33.0,14.9,29.67,NNW,342,0.0,0.0,47,0.00,CLR,,0.01,WeatherDisplay:10.37,2013-04-07 23:32:00,
2013-04-07 15:37:00,33.0,15.4,29.67,NNW,341,0.0,0.0,48,0.00,CLR,,0.01,WeatherDisplay:10.37,2013-04-07 23:37:00,
2013-04-07 15:42:00,33.1,13.5,29.67,NNW,341,0.0,0.0,44,0.00,CLR,,0.01,WeatherDisplay:10.37,2013-04-07 23:42:00,
2013-04-07 15:47:00,32.9,15.3,29.67,NNW,341,0.0,0.0,48,0.00,CLR,,0.01,WeatherDisplay:10.37,2013-04-07 23:47:00,
2013-04-07 15:52:00,32.8,15.2,29.67,NNW,341,0.0,0.0,48,0.00,CLR,,0.01,WeatherDisplay:10.37,2013-04-07 23:52:00,
2013-04-07 15:57:00,32.6,14.1,29.67,NNW,342,0.0,0.0,46,0.00,CLR,,0.01,WeatherDisplay:10.37,2013-04-07 23:57:00,
2013-04-07 16:02:00,32.5,14.0,29.68,NNW,342,0.0,0.0,46,0.00,CLR,,0.01,WeatherDisplay:10.37,2013-04-08 00:02:00,
2013-04-07 16:07:00,32.6,14.6,29.68,NNW,341,0.0,0.0,47,0.00,CLR,,0.01,WeatherDisplay:10.37,2013-04-08 00:07:00,
2013-04-07 16:12:00,32.8,13.2,29.68,NNW,342,0.0,0.0,44,0.00,CLR,,0.01,WeatherDisplay:10.37,2013-04-08 00:12:00,
2013-04-07 16:17:00,32.8,14.3,29.68,NNW,342,0.0,0.0,46,0.00,CLR,,0.01,WeatherDisplay:10.37,2013-04-08 00:17:00,
2013-04-07 16:22:00,32.8,12.7,29.68,NNW,342,0.0,0.0,43,0.00,CLR,,0.01,WeatherDisplay:10.37,2013-04-08 00:22:00,
2013-04-07 16:27:00,32.7,13.7,29.68,NNW,342,0.0,0.0,45,0.00,CLR,,0.01,WeatherDisplay:10.37,2013-04-08 00:27:00,
2013-04-07 16:32:00,32.9,13.3,29.68,NNW,342,0.0,0.0,44,0.00,CLR,,0.01,WeatherDisplay:10.37,2013-04-08 00:32:00,
2013-04-07 16:37:00,33.2,14.1,29.68,NNW,342,0.0,0.0,45,0.00,CLR,,0.01,WeatherDisplay:10.37,2013-04-08 00:37:00,
2013-04-07 16:42:00,33.6,14.5,29.68,NNW,341,0.0,0.0,45,0.00,CLR,,0.01,WeatherDisplay:10.37,2013-04-08 00:42:00,
2013-04-07 16:47:00,33.4,14.3,29.68,NNW,341,0.0,0.0,45,0.00,CLR,,0.01,WeatherDisplay:10.37,2013-04-08 00:47:00,
2013-04-07 16:52:00,33.1,12.5,29.68,NNW,342,0.0,0.0,42,0.00,CLR,,0.01,WeatherDisplay:10.37,2013-04-08 00:52:00,
2013-04-07 16:57:00,33.3,13.2,29.69,NNW,342,0.0,0.0,43,0.00,CLR,,0.01,WeatherDisplay:10.37,2013-04-08 00:57:00,
2013-04-07 17:02:00,33.7,13.0,29.69,NNW,342,0.0,0.0,42,0.00,CLR,,0.01,WeatherDisplay:10.37,2013-04-08 01:02:00,
2013-04-07 17:07:00,33.5,12.3,29.69,NNW,341,0.0,0.0,41,0.00,CLR,,0.01,WeatherDisplay:10.37,2013-04-08 01:07:00,
2013-04-07 17:12:00,33.4,11.6,29.68,NNW,342,0.0,0.0,40,0.00,CLR,,0.01,WeatherDisplay:10.37,2013-04-08 01:12:00,
2013-04-07 17:17:00,33.2,12.6,29.68,NNW,341,0.0,0.0,42,0.00,CLR,,0.01,WeatherDisplay:10.37,2013-04-08 01:17:00,
2013-04-07 17:22:00,33.3,12.6,29.68,NNW,341,0.0,0.0,42,0.00,CLR,,0.01,WeatherDisplay:10.37,2013-04-08 01:22:00,
2013-04-07 17:27:00,33.1,12.5,29.68,NNW,341,0.0,0.0,42,0.00,CLR,,0.01,WeatherDisplay:10.37,2013-04-08 01:27:00,
2013-04-07 17:32:00,33.3,13.2,29.69,NNW,342,0.0,0.0,43,0.00,CLR,,0.01,WeatherDisplay:10.37,2013-04-08 01:32:00,
2013-04-07 17:37:00,33.5,12.8,29.69,NNW,341,0.0,0.0,42,0.00,CLR,,0.01,WeatherDisplay:10.37,2013-04-08 01:37:00,
2013-04-07 17:42:00,33.8,13.1,29.68,NNW,342,0.0,0.0,42,0.00,CLR,,0.01,WeatherDisplay:10.37,2013-04-08 01:42:00,
2013-04-07 17:47:00,33.6,13.5,29.69,NNW,342,0.0,0.0,43,0.00,CLR,,0.01,WeatherDisplay:10.37,2013-04-08 01:47:00,
2013-04-07 17:53:00,33.3,12.6,29.69,NNW,342,0.0,0.0,42,0.00,CLR,,0.01,WeatherDisplay:10.37,2013-04-08 01:53:00,
2013-04-07 17:57:00,33.0,12.9,29.69,NNW,341,0.0,0.0,43,0.00,CLR,,0.01,WeatherDisplay:10.37,2013-04-08 01:57:00,
2013-04-07 18:02:00,32.7,12.6,29.69,NNW,341,0.0,0.0,43,0.00,CLR,,0.01,WeatherDisplay:10.37,2013-04-08 02:02:00,
2013-04-07 18:07:00,32.9,11.2,29.69,NNW,342,0.0,0.0,40,0.00,CLR,,0.01,WeatherDisplay:10.37,2013-04-08 02:07:00,
2013-04-07 18:12:00,32.8,11.6,29.69,NNW,342,0.0,0.0,41,0.00,CLR,,0.01,WeatherDisplay:10.37,2013-04-08 02:12:00,
2013-04-07 18:17:00,32.4,12.4,29.69,NNW,341,0.0,0.0,43,0.00,CLR,,0.01,WeatherDisplay:10.37,2013-04-08 02:17:00,
2013-04-07 18:22:00,32.6,12.5,29.69,NNW,341,0.0,0.0,43,0.00,CLR,,0.01,WeatherDisplay:10.37,2013-04-08 02:22:00,
2013-04-07 18:27:00,33.0,11.8,29.69,NNW,342,0.0,0.0,41,0.00,CLR,,0.01,WeatherDisplay:10.37,2013-04-08 02:27:00,
2013-04-07 18:33:00,32.3,10.6,29.69,NNW,341,0.0,0.0,40,0.00,CLR,,0.01,WeatherDisplay:10.37,2013-04-08 02:33:00,
2013-04-07 18:38:00,31.0,10.6,29.69,NNW,342,0.0,0.0,42,0.00,CLR,,0.01,WeatherDisplay:10.37,2013-04-08 02:38:00,
2013-04-07 18:43:00,30.0,9.6,29.69,NNW,342,0.0,0.0,42,0.00,CLR,,0.01,WeatherDisplay:10.37,2013-04-08 02:43:00,
2013-04-07 18:48:00,28.5,8.8,29.69,NNW,342,0.0,0.0,43,0.00,CLR,,0.01,WeatherDisplay:10.37,2013-04-08 02:48:00,
2013-04-07 18:53:00,27.6,8.5,29.69,NNW,341,0.0,0.0,44,0.00,CLR,,0.01,WeatherDisplay:10.37,2013-04-08 02:53:00,
2013-04-07 18:58:00,27.3,8.7,29.69,NNW,342,0.0,0.0,45,0.00,CLR,,0.01,WeatherDisplay:10.37,2013-04-08 02:58:00,
2013-04-07 19:03:00,27.2,8.6,29.69,NNW,342,0.0,0.0,45,0.00,CLR,,0.01,WeatherDisplay:10.37,2013-04-08 03:03:00,
2013-04-07 19:08:00,27.0,8.5,29.69,NNW,342,0.0,0.0,45,0.00,CLR,,0.01,WeatherDisplay:10.37,2013-04-08 03:08:00,
2013-04-07 19:13:00,27.0,8.5,29.69,NNW,342,0.0,0.0,45,0.00,CLR,,0.01,WeatherDisplay:10.37,2013-04-08 03:13:00,
2013-04-07 19:18:00,27.1,8.5,29.70,NNW,342,0.0,0.0,45,0.00,CLR,,0.01,WeatherDisplay:10.37,2013-04-08 03:18:00,
2013-04-07 19:23:00,27.0,8.9,29.70,NNW,342,0.0,0.0,46,0.00,CLR,,0.01,WeatherDisplay:10.37,2013-04-08 03:23:00,
2013-04-07 19:28:00,26.8,9.2,29.70,NNW,342,0.0,0.0,47,0.00,CLR,,0.01,WeatherDisplay:10.37,2013-04-08 03:28:00,
2013-04-07 19:33:00,26.8,9.2,29.70,NNW,342,0.0,0.0,47,0.00,CLR,,0.01,WeatherDisplay:10.37,2013-04-08 03:33:00,
2013-04-07 19:38:00,26.9,9.3,29.70,NNW,341,0.0,0.0,47,0.00,CLR,,0.01,WeatherDisplay:10.37,2013-04-08 03:38:00,
2013-04-07 19:43:00,26.9,9.3,29.70,NNW,341,0.0,0.0,47,0.00,CLR,,0.01,WeatherDisplay:10.37,2013-04-08 03:43:00,
2013-04-07 19:48:00,26.7,9.1,29.70,NNW,341,0.0,0.0,47,0.00,CLR,,0.01,WeatherDisplay:10.37,2013-04-08 03:48:00,
2013-04-07 19:53:00,26.5,9.0,29.70,NNW,341,0.0,0.0,47,0.00,CLR,,0.01,WeatherDisplay:10.37,2013-04-08 03:53:00,
2013-04-07 19:58:00,26.3,8.8,29.70,NNW,342,0.0,0.0,47,0.00,CLR,,0.01,WeatherDisplay:10.37,2013-04-08 03:58:00,
2013-04-07 20:00:00,26.3,8.3,29.70,NNW,342,0.0,0.0,46,0.00,CLR,,0.01,WeatherDisplay:10.37,2013-04-08 04:00:00,
2013-04-07 20:01:00,26.2,8.2,29.70,NNW,341,0.0,0.0,46,0.00,CLR,,0.01,WeatherDisplay:10.37,2013-04-08 04:01:00,
2013-04-07 20:06:00,26.1,8.6,29.70,NNW,342,0.0,0.0,47,0.00,CLR,,0.01,WeatherDisplay:10.37,2013-04-08 04:06:00,
2013-04-07 20:11:00,26.1,9.1,29.70,NNW,342,0.0,0.0,48,0.00,CLR,,0.01,WeatherDisplay:10.37,2013-04-08 04:11:00,
2013-04-07 20:16:00,26.1,8.6,29.70,NNW,341,0.0,0.0,47,0.00,CLR,,0.01,WeatherDisplay:10.37,2013-04-08 04:16:00,
2013-04-07 20:21:00,26.1,9.1,29.70,NNW,341,0.0,0.0,48,0.00,CLR,,0.01,WeatherDisplay:10.37,2013-04-08 04:21:00,
2013-04-07 20:26:00,26.1,9.1,29.70,NNW,342,0.0,0.0,48,0.00,CLR,,0.01,WeatherDisplay:10.37,2013-04-08 04:26:00,
2013-04-07 20:31:00,26.0,9.0,29.70,NNW,342,0.0,0.0,48,0.00,CLR,,0.01,WeatherDisplay:10.37,2013-04-08 04:31:00,
2013-04-07 20:36:00,25.9,9.3,29.70,NNW,342,0.0,0.0,49,0.00,CLR,,0.01,WeatherDisplay:10.37,2013-04-08 04:36:00,
2013-04-07 20:41:00,25.9,9.3,29.71,NNW,342,0.0,0.0,49,0.00,CLR,,0.01,WeatherDisplay:10.37,2013-04-08 04:41:00,
2013-04-07 20:46:00,25.9,9.3,29.71,NNW,342,0.0,0.0,49,0.00,CLR,,0.01,WeatherDisplay:10.37,2013-04-08 04:46:00,
2013-04-07 20:51:00,25.9,9.8,29.71,NNW,341,0.0,0.0,50,0.00,CLR,,0.01,WeatherDisplay:10.37,2013-04-08 04:51:00,
2013-04-07 20:56:00,25.9,9.8,29.71,NNW,341,0.0,0.0,50,0.00,CLR,,0.01,WeatherDisplay:10.37,2013-04-08 04:56:00,
2013-04-07 21:01:00,25.8,9.7,29.71,NNW,342,0.0,0.0,50,0.00,CLR,,0.01,WeatherDisplay:10.37,2013-04-08 05:01:00,
2013-04-07 21:06:00,25.6,10.0,29.71,NNW,342,0.0,0.0,51,0.00,CLR,,0.01,WeatherDisplay:10.37,2013-04-08 05:06:00,
2013-04-07 21:11:00,25.5,9.9,29.71,NNW,341,0.0,0.0,51,0.00,CLR,,0.01,WeatherDisplay:10.37,2013-04-08 05:11:00,
2013-04-07 21:16:00,25.4,10.2,29.72,NNW,342,0.0,0.0,52,0.00,CLR,,0.01,WeatherDisplay:10.37,2013-04-08 05:16:00,
2013-04-07 21:21:00,25.3,9.2,29.72,NNW,342,0.0,0.0,50,0.00,CLR,,0.01,WeatherDisplay:10.37,2013-04-08 05:21:00,
2013-04-07 21:26:00,25.1,9.0,29.72,NNW,341,0.0,0.0,50,0.00,CLR,,0.01,WeatherDisplay:10.37,2013-04-08 05:26:00,
2013-04-07 21:31:00,25.0,9.4,29.72,NNW,342,0.0,0.0,51,0.00,CLR,,0.01,WeatherDisplay:10.37,2013-04-08 05:31:00,
2013-04-07 21:36:00,25.0,9.4,29.72,NNW,342,0.0,0.0,51,0.00,CLR,,0.01,WeatherDisplay:10.37,2013-04-08 05:36:00,
2013-04-07 21:41:00,24.8,9.2,29.72,NNW,341,0.0,0.0,51,0.00,CLR,,0.01,WeatherDisplay:10.37,2013-04-08 05:41:00,
2013-04-07 21:46:00,24.7,10.4,29.72,NNW,342,0.0,0.0,54,0.00,CLR,,0.01,WeatherDisplay:10.37,2013-04-08 05:46:00,
2013-04-07 21:51:00,24.5,8.9,29.72,NNW,342,0.0,0.0,51,0.00,CLR,,0.01,WeatherDisplay:10.37,2013-04-08 05:51:00,
2013-04-07 21:56:00,24.3,9.6,29.72,NNW,341,0.0,0.0,53,0.00,CLR,,0.01,WeatherDisplay:10.37,2013-04-08 05:56:00,
2013-04-07 22:01:00,24.0,8.9,29.73,NNW,342,0.0,0.0,52,0.00,CLR,,0.01,WeatherDisplay:10.37,2013-04-08 06:01:00,
2013-04-07 22:06:00,23.8,9.6,29.73,NNW,341,0.0,0.0,54,0.00,CLR,,0.01,WeatherDisplay:10.37,2013-04-08 06:06:00,
2013-04-07 22:11:00,23.5,9.7,29.73,NNW,341,0.0,0.0,55,0.00,CLR,,0.01,WeatherDisplay:10.37,2013-04-08 06:11:00,
2013-04-07 22:16:00,23.2,10.2,29.73,NNW,342,0.0,0.0,57,0.00,CLR,,0.01,WeatherDisplay:10.37,2013-04-08 06:16:00,
2013-04-07 22:21:00,23.0,9.6,29.73,NNW,342,0.0,0.0,56,0.00,CLR,,0.01,WeatherDisplay:10.37,2013-04-08 06:21:00,
2013-04-07 22:26:00,22.9,9.5,29.73,NNW,342,0.0,0.0,56,0.00,CLR,,0.01,WeatherDisplay:10.37,2013-04-08 06:26:00,
2013-04-07 22:31:00,22.9,9.9,29.73,NNW,341,0.0,0.0,57,0.00,CLR,,0.01,WeatherDisplay:10.37,2013-04-08 06:31:00,
2013-04-07 22:36:00,22.8,9.8,29.73,NNW,341,0.0,0.0,57,0.00,CLR,,0.01,WeatherDisplay:10.37,2013-04-08 06:36:00,
2013-04-07 22:41:00,22.8,9.8,29.73,NNW,342,0.0,0.0,57,0.00,CLR,,0.01,WeatherDisplay:10.37,2013-04-08 06:41:00,
2013-04-07 22:46:00,22.9,9.9,29.73,NNW,342,0.0,0.0,57,0.00,CLR,,0.01,WeatherDisplay:10.37,2013-04-08 06:46:00,
2013-04-07 22:51:00,22.8,9.4,29.72,NNW,341,0.0,0.0,56,0.00,CLR,,0.01,WeatherDisplay:10.37,2013-04-08 06:51:00,
2013-04-07 22:56:00,22.8,9.8,29.72,NNW,342,0.0,0.0,57,0.00,CLR,,0.01,WeatherDisplay:10.37,2013-04-08 06:56:00,
2013-04-07 23:01:00,22.8,9.8,29.73,NNW,341,0.0,0.0,57,0.00,CLR,,0.01,WeatherDisplay:10.37,2013-04-08 07:01:00,
2013-04-07 23:06:00,22.6,9.6,29.73,NNW,342,0.0,0.0,57,0.00,CLR,,0.01,WeatherDisplay:10.37,2013-04-08 07:06:00,
2013-04-07 23:11:00,22.4,9.4,29.73,NNW,341,0.0,0.0,57,0.00,CLR,,0.01,WeatherDisplay:10.37,2013-04-08 07:11:00,
2013-04-07 23:16:00,22.2,9.3,29.73,NNW,342,0.0,0.0,57,0.00,CLR,,0.01,WeatherDisplay:10.37,2013-04-08 07:16:00,
2013-04-07 23:21:00,22.0,9.1,29.73,NNW,342,0.0,0.0,57,0.00,CLR,,0.01,WeatherDisplay:10.37,2013-04-08 07:21:00,
2013-04-07 23:26:00,22.0,8.3,29.73,NNW,342,0.0,0.0,55,0.00,CLR,,0.01,WeatherDisplay:10.37,2013-04-08 07:26:00,
2013-04-07 23:31:00,22.1,8.8,29.73,NNW,342,0.0,0.0,56,0.00,CLR,,0.01,WeatherDisplay:10.37,2013-04-08 07:31:00,
2013-04-07 23:36:00,22.3,9.0,29.73,NNW,342,0.0,0.0,56,0.00,CLR,,0.01,WeatherDisplay:10.37,2013-04-08 07:36:00,
2013-04-07 23:41:00,22.6,8.8,29.73,NNW,342,0.0,0.0,55,0.00,CLR,,0.01,WeatherDisplay:10.37,2013-04-08 07:41:00,
2013-04-07 23:46:00,22.5,9.5,29.73,NNW,341,0.0,0.0,57,0.00,CLR,,0.01,WeatherDisplay:10.37,2013-04-08 07:46:00,
2013-04-07 23:51:00,22.0,9.5,29.73,NNW,341,0.0,0.0,58,0.00,CLR,,0.01,WeatherDisplay:10.37,2013-04-08 07:51:00,
2013-04-07 23:56:00,21.6,8.7,29.72,NNW,342,0.0,0.0,57,0.00,CLR,,0.01,WeatherDisplay:10.37,2013-04-08 07:56:00,